Regional Weather Roundup
Issued by NWS Little Rock, AR

Home | Current Version | Previous Version | Text Only | Print | Product List | Glossary On
Versions: 1 2 3 4 5 6 7 8 9 10 11 12 13 14 15 16 17 18 19 20 21 22 23 24 25 26 27 28 29 30 31
000
ASUS44 KLZK 191505
RWRLZK

WEATHER ROUNDUP FOR ARKANSAS
NATIONAL WEATHER SERVICE LITTLE ROCK AR
1000 AM CDT SAT AUG 19 2017

NOTE: "FAIR" INDICATES FEW OR NO CLOUDS BELOW 12,000 FEET WITH NO
SIGNIFICANT WEATHER AND/OR OBSTRUCTIONS TO VISIBILITY.

ARZ001-003-010-029-191600-
NORTHWEST ARKANSAS

CITY           SKY/WX    TMP DP  RH WIND       PRES   REMARKS
FAYETTEVILLE   SUNNY     82  75  79 SW9       30.03F HX  89
FORT SMITH     SUNNY     80  73  79 NE5       30.00F
HARRISON       SUNNY     83  74  74 W8        30.03S HX  89
BENTONVILLE    SUNNY     81  72  74 W8        30.04S
ROGERS         SUNNY     81  74  79 W10       30.04F HX  86
SILOAM SPGS    SUNNY     82  72  69 SW7       30.03S HX  87
HIGHFILL       SUNNY     81  75  82 SW9       30.04S HX  87
SPRINGDALE     SUNNY     82  73  74 SW6       30.05S HX  88
$$

ARZ004-005-016-191600-
NORTH CENTRAL ARKANSAS

CITY           SKY/WX    TMP DP  RH WIND       PRES   REMARKS
BATESVILLE     SUNNY     82  73  74 W5        29.99S HX  88
FLIPPIN        SUNNY     81  70  69 SE3       29.98S
MTN HOME       SUNNY     80  74  81 W3        30.01S HX  85
$$

ARZ040-041-191600-
WEST CENTRAL ARKANSAS

CITY           SKY/WX    TMP DP  RH WIND       PRES   REMARKS
MENA           SUNNY     88  82  84 CALM      30.03S HX 108
MOUNT IDA      SUNNY     83  73  72 CALM      30.00F HX  89
$$

ARZ009-017-025-026-028-191600-
NORTHEAST ARKANSAS

CITY           SKY/WX    TMP DP  RH WIND       PRES   REMARKS
CORNING        FAIR      82  75  78 W6        29.98R HX  89
JONESBORO      SUNNY     82  74  76 W7        29.98S HX  88
NEWPORT        SUNNY     82  73  74 W6        29.99R HX  87
WALNUT RIDGE   SUNNY     82  72  69 W8        29.98S HX  87
BLYTHEVILLE    SUNNY     82  75  79 NW3       29.98S HX  89
$$

ARZ022-023-033-042-044-191600-
CENTRAL ARKANSAS

CITY           SKY/WX    TMP DP  RH WIND       PRES   REMARKS
LITTLE ROCK    MOSUNNY   81  77  88 W6        29.99F HX  88
N LITTLE ROCK    N/A     83  77  83 N5        30.00S HX  91
JACKSONVILLE   SUNNY     83  77  82 W6        29.99S HX  92
CONWAY           N/A     81  75  83 CALM      29.98S HX  86
SEARCY         SUNNY     84  77  79 W3        30.01R HX  94
HOT SPRINGS    SUNNY     83  76  79 W5        30.01S HX  91
RUSSELLVILLE   SUNNY     80  73  79 VRB3      30.00S
CLINTON        FAIR      79  73  83 CALM      30.00F
$$

ARZ036-191600-
EAST ARKANSAS

CITY           SKY/WX    TMP DP  RH WIND       PRES   REMARKS
WEST MEMPHIS   SUNNY     82  73  74 VRB3      29.98S HX  87
$$

ARZ050-053-066-070-073-191600-
SOUTHWEST ARKANSAS

CITY           SKY/WX    TMP DP  RH WIND       PRES   REMARKS
ARKADELPHIA    FAIR      83  76  79 CALM      30.00F HX  91
CAMDEN         SUNNY     88  75  66 W8        29.99F HX  97
TEXARKANA      SUNNY     87  72  60 W12       30.01S HX  93
EL DORADO      SUNNY     87  76  69 W8        30.02R HX  97
DE QUEEN       SUNNY     84  79  85 W3        29.99S HX  96
$$

ARZ056-057-069-191600-
SOUTHEAST ARKANSAS

CITY           SKY/WX    TMP DP  RH WIND       PRES   REMARKS
PINE BLUFF     SUNNY     83  75  77 W7        29.99F HX  90
MONTICELLO     SUNNY     85  75  72 CALM      30.01R HX  93

$$






USA.gov is the U.S. government's official web portal to all federal, state and local government web resources and services.